Flag for Palestinian Territories Weather past 2 weeks in Hebron, West Bank, Palestinian Territories

72 °F


Feels Like: 77 °F
Forecast: 53 / 61 °F
Wind: 6 mph from Southeast

Location: Ben Gurion International Airport

Current Time: Nov 26, 2015 at 1:24:44 AM

Latest Report: Nov 26, 2015 at 12:50 AM

Visibility: 10 mi

Pressure: 29.92 "Hg (26.98 "Hg at 894m altitude)

Humidity: 44%

Dew point: 48 °F

Location of HebronLocation

Historic Weather in Hebron — Graph


Hebron temperature yesterday

Maximum temperature yesterday: 77 °F (at 11:20 AM)
Minimum temperature yesterday: 55 °F (at 4:20 AM)
Average temperature yesterday: 69 °F

Past Weeks' High & Low Weather Summary

High90 °F (Nov 15, 1:50 PM)94% (Nov 16, 11:20 AM)30.18 "Hg (Nov 16, 11:20 AM)
Low54 °F (Nov 14, 5:20 AM)20% (Nov 14, 10:20 AM)29.74 "Hg (Nov 16, 11:50 AM)
Average68 °F57%30.01 "Hg
* Reported Nov 11 1:20 AM — Nov 26 12:20 AM, Hebron, Weather by CustomWeather, © 2015

Note: Actual official high and low records may vary slightly from our data, if they occured in-between our weather recording intervals... More about our weather records


Hebron weather history for previous 24 hours

Time TempWeatherWind HumidityBarometerVisibility
12:20 AM
Thu, Nov 26
72 °FClear.8 mph44%29.92 "Hg10 mi
11:50 PM
Wed, Nov 25
72 °FClear.8 mph44%29.95 "Hg10 mi
11:20 PM72 °FClear.7 mph44%29.95 "Hg10 mi
10:50 PM72 °FClear.8 mph44%29.92 "Hg10 mi
10:20 PM72 °FClear.6 mph44%29.95 "Hg10 mi
9:50 PM73 °FClear.6 mph41%29.95 "Hg10 mi
9:20 PM73 °FClear.13 mph38%29.92 "Hg10 mi
8:50 PM73 °FClear.13 mph38%29.92 "Hg10 mi
8:20 PM73 °FClear.20 mph38%29.92 "Hg10 mi
7:50 PM73 °FClear.24 mph38%29.92 "Hg10 mi
7:20 PM73 °FClear.21 mph38%29.92 "Hg10 mi
6:50 PM73 °FClear.15 mph38%29.95 "Hg10 mi
6:20 PM73 °FClear.10 mph38%29.95 "Hg10 mi
5:50 PM72 °FClear.8 mph44%29.95 "Hg10 mi
5:20 PM72 °FClear.3 mph44%29.98 "Hg10 mi
4:50 PM73 °FClear.6 mph41%29.98 "Hg10 mi
4:20 PM77 °FSunny.8 mph34%29.98 "Hg10 mi
3:50 PM75 °FSunny.6 mph36%29.98 "Hg10 mi
3:20 PM75 °FSunny.7 mph34%30.01 "Hg10 mi
2:50 PM77 °FSunny.6 mph32%30.01 "Hg10 mi
2:20 PM77 °FSunny.12 mph30%30.01 "Hg10 mi
1:50 PM77 °FSunny.12 mph30%30.01 "Hg10 mi
1:20 PM77 °FSunny.18 mph30%30.01 "Hg10 mi
12:50 PM75 °FSunny.16 mph31%30.04 "Hg10 mi
12:20 PM77 °FSunny.16 mph30%30.04 "Hg10 mi
11:50 AM77 °FSunny.15 mph28%30.04 "Hg10 mi
11:20 AM77 °FSunny.15 mph26%30.04 "Hg10 mi
10:50 AM75 °FSunny.17 mph27%30.07 "Hg10 mi
10:20 AM75 °FPassing clouds.8 mph25%30.07 "HgN/A
9:50 AM73 °FSunny.8 mph25%30.07 "Hg10 mi
9:20 AM73 °FSunny.10 mph25%30.07 "Hg10 mi
8:50 AM70 °FSunny.13 mph31%30.07 "Hg10 mi
8:20 AM61 °FSunny.3 mph55%30.07 "Hg10 mi
7:50 AM59 °FSunny.7 mph55%30.07 "Hg10 mi
7:20 AM55 °FSunny.5 mph63%30.07 "Hg10 mi
6:50 AM55 °FSunny.5 mph59%30.07 "Hg10 mi
6:20 AM55 °FPassing clouds.5 mph51%30.07 "HgN/A
5:20 AM55 °FPassing clouds.6 mph51%30.09 "HgN/A
4:50 AM57 °FClear.7 mph48%30.09 "Hg10 mi
4:20 AM55 °FPassing clouds.6 mph51%30.09 "HgN/A
3:50 AM57 °FClear.3 mph44%30.09 "Hg10 mi
3:20 AM57 °FClear.2 mph44%30.09 "Hg10 mi
2:20 AM57 °FClear.2 mph44%30.09 "Hg10 mi
1:50 AM59 °FClear.3 mph42%30.12 "Hg10 mi
1:20 AM59 °FClear.10 mph45%30.09 "Hg10 mi
Weather by CustomWeather, © 2015

See weather overviewHow to use our weather pages